STARLINK-34664, 64806

Orbit data source: Space-Track

STARLINK-34664, 64806 is a payload satellite owned by SpaceX/Seattle (US) in LEO that was launched on Wed, 16 Jul 2025 UTC via an FALCON 9 launch vehicle from the Air Force Western Test Range (AFWTR). Payload-class satellites include a variety of spacecraft equipped with specific instruments for various scientific and technological missions. These include communications satellites like Starlink; space stations such as the ISS; scientific satellites like the Hubble; Earth observation satellites from companies like Planet Labs, Umbra, and HawkEye 360; GPS; miniature CubeSats for education and research; and military/defense satellites.

Loading next visibility...
Identifier
64806, 2025-150S
Orbit
LEO
Country
Flag of USUS
Related business
Manufacturer
SpaceX/Seattle
Mission
Operational Commercial Communications
Bus & Motor
STARLINK V2MO, Unknown motor
Mass
575 kg wet, ~530 kg dry
Launch date (UTC)
2025-07-16 (11 months ago)
Launch vehicle
FALCON 9
Launch site
Air Force Western Test Range (AFWTR)
Object type
Payload
Rocket body
Debris
Shape & HBR
Box + 2 Pan, 17.7 m
Radar Cross Section
36.964 m², Large (>1 m²)

Expand to show TLE details & history
Last TLE update: 10 hours ago

TLE from 10 hours ago
0 STARLINK-34664
1 64806U 25150S   26171.44734019  .00002899  00000-0  25061-3 0  9991
2 64806  69.9992 235.1722 0003389 269.5286  90.5485 14.98335876 51914
Epoch: 2026-06-20T10:44Z
TLE epoch observation values (Epoch: 2026-06-20T10:44:10.192Z)
Latitude
0.00001°
Longitude
165.4679°
Altitude
574.485 km
Speed
7.574 km/s
True Right ascension
15h 40m 41s
True Declination
0° 00' 00"
Sunlit
Object was in full shadow at epoch
Visualization orbit readout
Latitude
Unknown
Longitude
Unknown
Altitude
Unknown
Speed
Unknown
Apparent Right ascension
Unknown
Apparent Declination
Unknown
Sunlit
N/A
Visualization observer readout
Local Sidereal Time
07:16:13
Azimuth
Unknown
Elevation
Unknown
Doppler factor
Unknown
Orbital elements
Apogee altitude
572.341 km
Perigee altitude
567.631 km
Semi-major axis
6,948.123 km
Eccentricity
0.00034
Inclination
69.9992°
RAAN
235.1722°
Arg. of periapsis
269.5286°
True anomaly
90.58733°
Mean anomaly
90.5485°
Eccentric anomaly
90.56792°
Mean motion
3.7475 °/min
Orbital period
96.06 mins
BSTAR
0.00025061
Loading maneuver chart data...
Computing Atmospheric mass density...
Loading historical data...
Loading historical data...
Loading historical data...
Loading historical data...
Loading historical data...
Loading historical data...
Loading historical data...

Documentation

Showing up to 5 results
|